Weather in Uvero Alto

Dominican Republic     18°48′00″N   68°34′30″W
temp.,
°C
wind,
m/s
gust,
m/s
humid.,
%
clouds,
%
prec.,
mm/h
press.,
hPa
HPBL,
m
27 november, sat
sat2723:00+25ne56685 0.0 1014518
02:00+25ene45715 0.0 1013518
05:00+24ene34695 0.0 1013374
08:00+26ne45675 0.0 1015697
11:00+28ne55612 0.0 10161064
14:00+28ne55592 0.0 10131126
17:00+27nne566298 0.0 1013973
20:00+25ne676981 0.0 1015535
28 november, sun
sun2823:00+25ne57728 0.0 1015552
02:00+25ne56738 0.0 1014558
05:00+25ne467451 0.1 1014502
08:00+26ne567497 0.1 1015705
11:00+28ene666668 0.1 10161188
14:00+28ene656620 0.1 10131172
17:00+27ne567312 0.2 1013886
20:00+26ene57787 0.3 1015523
29 november, mon
mon2923:00+25ene57797 0.1 1015472
02:00+25ene568031 0.2 1014434
05:00+25ene458168 0.1 1013393
08:00+26ene45787 0.1 1014611
11:00+28ene446826 0.1 10151094
14:00+28ene436723 0.2 1013937
17:00+27ene44736 0.0 1012642
20:00+25ene33825 0.0 1014293
30 november, tue
tue3023:00+25ene34835 0.0 1015300
02:00+25ne23836 0.1 1014260
05:00+25ne338311 0.1 1014323
08:00+26ne347711 0.1 1015545
11:00+28ne5567100 0.0 10161010
14:00+28ne556762 0.0 10141076
17:00+27ne4474100 0.1 1014789
20:00+26ene5681100 0.1 1015425
1 december, wed
wed123:00+26ene567857 0.0 1016446
02:00+26e5681100 0.3 1015396
05:00+26e568397 0.3 1015423
08:00+26e578376 0.9 1016545
11:00+28e677196 0.5 10171031
14:00+29e566990 0.8 10151033
17:00+27ene567799 0.7 1015757
20:00+26ene687892 1.2 1016545